SAS1415 ESSA-EKCH

Flight info

Callsign SAS1415
Flight time 0h 55m
Altitude 34000
Route PETEV N872 ERNOV
Aircraft A320/M-SDE3FGHIJ1RWXYZ/ALB1

Departure

Time 2026-04-22 17:35
Airport Stockholm-Arlanda Airport (ESSA)

Arrival

Time 2026-04-22 18:30
Airport Copenhagen Kastrup Airport (EKCH)
Time Latitude Longitude Altitude Speed Heading
2026-04-22 17:03 59.65426 17.93771 112 ft 0 kts 255°
2026-04-22 17:29 59.65431 17.93810 109 ft 4 kts 255°
2026-04-22 17:29 59.65437 17.93854 111 ft 2 kts 256°
2026-04-22 17:29 59.65440 17.93902 112 ft 4 kts 284°
2026-04-22 17:29 59.65429 17.93937 109 ft 3 kts 344°
2026-04-22 17:30 59.65426 17.93939 109 ft 0 kts 346°
2026-04-22 17:32 59.65492 17.93904 113 ft 27 kts 345°
2026-04-22 17:32 59.65661 17.93782 115 ft 23 kts 299°
2026-04-22 17:33 59.65646 17.93571 110 ft 24 kts 265°
2026-04-22 17:33 59.65719 17.93489 111 ft 0 kts 37°
2026-04-22 17:33 59.65760 17.93585 114 ft 24 kts 43°
2026-04-22 17:34 59.65873 17.93829 116 ft 25 kts 71°
2026-04-22 17:34 59.65949 17.94405 122 ft 83 kts 75°
2026-04-22 17:34 59.66156 17.96045 121 ft 158 kts 75°
2026-04-22 17:34 59.66444 17.98352 690 ft 173 kts 72°
2026-04-22 17:35 59.66753 18.00791 1417 ft 195 kts 69°
2026-04-22 17:35 59.67114 18.03465 2291 ft 203 kts 63°
2026-04-22 17:35 59.67935 18.05574 3274 ft 192 kts 25°
2026-04-22 17:35 59.69191 18.06186 3817 ft 187 kts 351°
2026-04-22 17:36 59.70350 18.05151 3978 ft 186 kts 319°
2026-04-22 17:36 59.70978 18.02879 4002 ft 199 kts 284°
2026-04-22 17:36 59.70967 18.00052 4537 ft 207 kts 275°
2026-04-22 17:36 59.70919 17.97221 5404 ft 206 kts 276°
2026-04-22 17:37 59.70884 17.94387 6206 ft 206 kts 275°
2026-04-22 17:37 59.70622 17.91492 6786 ft 228 kts 256°
2026-04-22 17:37 59.69969 17.88425 7130 ft 254 kts 254°
2026-04-22 17:37 59.69310 17.85036 7567 ft 269 kts 263°
2026-04-22 17:38 59.68853 17.81404 8315 ft 275 kts 263°
2026-04-22 17:38 59.68379 17.77695 9136 ft 280 kts 264°
2026-04-22 17:38 59.67894 17.73921 9941 ft 285 kts 264°
2026-04-22 17:38 59.67296 17.70102 10566 ft 303 kts 255°
2026-04-22 17:39 59.66068 17.66423 10776 ft 341 kts 232°
2026-04-22 17:39 59.64053 17.63621 11206 ft 367 kts 207°
2026-04-22 17:39 59.58974 17.61099 12475 ft 383 kts 198°
2026-04-22 17:40 59.56412 17.59541 13120 ft 387 kts 201°
2026-04-22 17:40 59.53895 17.57628 13813 ft 388 kts 210°
2026-04-22 17:40 59.51610 17.54812 14414 ft 387 kts 221°
2026-04-22 17:40 59.49568 17.51365 15028 ft 387 kts 228°
2026-04-22 17:41 59.47573 17.47768 15635 ft 391 kts 226°
2026-04-22 17:41 59.45527 17.44194 16242 ft 395 kts 226°
2026-04-22 17:41 59.43453 17.40620 16852 ft 398 kts 225°
2026-04-22 17:41 59.41360 17.37022 17464 ft 402 kts 225°
2026-04-22 17:42 59.39278 17.33436 18067 ft 405 kts 225°
2026-04-22 17:42 59.37129 17.29711 18636 ft 409 kts 225°
2026-04-22 17:42 59.35027 17.26048 19188 ft 412 kts 225°
2026-04-22 17:42 59.32882 17.22303 19759 ft 414 kts 225°
2026-04-22 17:43 59.30696 17.18487 20382 ft 416 kts 225°
2026-04-22 17:43 59.28563 17.14771 20981 ft 417 kts 225°
2026-04-22 17:43 59.26385 17.10987 21533 ft 420 kts 225°
2026-04-22 17:43 59.24190 17.07188 22057 ft 423 kts 225°
2026-04-22 17:44 59.21973 17.03367 22576 ft 427 kts 225°
2026-04-22 17:44 59.19735 16.99526 23100 ft 431 kts 224°
2026-04-22 17:44 59.17447 16.95713 23616 ft 435 kts 223°
2026-04-22 17:44 59.15113 16.91922 24040 ft 438 kts 223°
2026-04-22 17:45 59.12753 16.88133 24458 ft 442 kts 223°
2026-04-22 17:45 59.10372 16.84326 24867 ft 445 kts 223°
2026-04-22 17:45 59.07975 16.80491 25261 ft 447 kts 222°
2026-04-22 17:45 59.05568 16.76625 25665 ft 450 kts 222°
2026-04-22 17:46 59.03153 16.72742 26057 ft 453 kts 222°
2026-04-22 17:46 59.00710 16.68812 26437 ft 457 kts 222°
2026-04-22 17:46 58.98259 16.64870 26821 ft 460 kts 222°
2026-04-22 17:46 58.95792 16.60904 27196 ft 463 kts 222°
2026-04-22 17:47 58.93299 16.56917 27553 ft 466 kts 222°
2026-04-22 17:47 58.90789 16.52917 27901 ft 469 kts 222°
2026-04-22 17:47 58.88266 16.48897 28273 ft 472 kts 222°
2026-04-22 17:47 58.85726 16.44850 28635 ft 475 kts 221°
2026-04-22 17:48 58.84035 16.42163 28873 ft 477 kts 221°
2026-04-22 17:48 58.80588 16.36701 29331 ft 481 kts 222°
2026-04-22 17:48 58.77990 16.32595 29668 ft 485 kts 221°
2026-04-22 17:48 58.75375 16.28476 30007 ft 488 kts 221°
2026-04-22 17:49 58.72735 16.24329 30305 ft 491 kts 221°
2026-04-22 17:49 58.70082 16.20165 30595 ft 494 kts 221°
2026-04-22 17:49 58.67414 16.15983 30878 ft 497 kts 221°
2026-04-22 17:49 58.64728 16.11777 31159 ft 499 kts 221°
2026-04-22 17:50 58.62029 16.07566 31509 ft 500 kts 221°
2026-04-22 17:50 58.59334 16.03376 31885 ft 500 kts 220°
2026-04-22 17:50 58.56635 15.99184 32337 ft 498 kts 220°
2026-04-22 17:50 58.53948 15.95015 32793 ft 497 kts 220°
2026-04-22 17:51 58.51265 15.90858 33234 ft 496 kts 220°
2026-04-22 17:51 58.48585 15.86712 33646 ft 496 kts 220°
2026-04-22 17:51 58.45901 15.82563 34017 ft 496 kts 220°
2026-04-22 17:52 58.40589 15.74399 34110 ft 490 kts 219°
2026-04-22 17:52 58.35291 15.66295 34098 ft 486 kts 218°
2026-04-22 17:53 58.30042 15.58277 34112 ft 481 kts 218°
2026-04-22 17:53 58.24826 15.50337 34111 ft 480 kts 218°
2026-04-22 17:54 58.19600 15.42437 34124 ft 480 kts 218°
2026-04-22 17:54 58.14368 15.34559 34127 ft 481 kts 218°
2026-04-22 17:55 58.10020 15.28025 34139 ft 480 kts 218°
2026-04-22 17:55 58.03900 15.18861 34148 ft 480 kts 218°
2026-04-22 17:56 57.98665 15.11059 34145 ft 479 kts 218°
2026-04-22 17:56 57.93427 15.03280 34151 ft 479 kts 218°
2026-04-22 17:57 57.88188 14.95538 34156 ft 479 kts 217°
2026-04-22 17:57 57.82939 14.87820 34152 ft 479 kts 217°
2026-04-22 17:58 57.77692 14.80124 34153 ft 479 kts 217°
2026-04-22 17:58 57.72440 14.72446 34159 ft 479 kts 217°
2026-04-22 17:59 57.67191 14.64785 34160 ft 479 kts 217°
2026-04-22 17:59 57.61940 14.57157 34163 ft 478 kts 217°
2026-04-22 18:00 57.57574 14.50850 34170 ft 477 kts 217°
2026-04-22 18:00 57.51443 14.42020 34170 ft 476 kts 217°
2026-04-22 18:01 57.46200 14.34498 34167 ft 476 kts 217°
2026-04-22 18:01 57.40953 14.26999 34159 ft 476 kts 216°
2026-04-22 18:02 57.35744 14.19584 34165 ft 475 kts 216°
2026-04-22 18:02 57.30526 14.12181 33513 ft 470 kts 216°
2026-04-22 18:02 57.27942 14.08520 33004 ft 467 kts 216°
2026-04-22 18:03 57.25378 14.04895 32567 ft 463 kts 217°
2026-04-22 18:03 57.22824 14.01290 32096 ft 459 kts 217°
2026-04-22 18:03 57.20297 13.97730 31659 ft 456 kts 217°
2026-04-22 18:03 57.17753 13.94161 31328 ft 449 kts 217°
2026-04-22 18:04 57.15326 13.90767 31113 ft 441 kts 217°
2026-04-22 18:04 57.12893 13.87366 30729 ft 438 kts 216°
2026-04-22 18:04 57.10471 13.83980 30348 ft 435 kts 216°
2026-04-22 18:04 57.08068 13.80627 29948 ft 433 kts 216°
2026-04-22 18:05 57.06453 13.78375 29668 ft 431 kts 216°
2026-04-22 18:05 57.04073 13.75060 29277 ft 428 kts 217°
2026-04-22 18:05 57.01710 13.71771 28897 ft 425 kts 217°
2026-04-22 18:05 56.98605 13.67455 28406 ft 421 kts 217°
2026-04-22 18:06 56.97027 13.65272 28163 ft 420 kts 217°
2026-04-22 18:06 56.94700 13.62061 27787 ft 417 kts 216°
2026-04-22 18:06 56.92394 13.58885 27454 ft 414 kts 216°
2026-04-22 18:06 56.90106 13.55729 27098 ft 411 kts 216°
2026-04-22 18:07 56.87828 13.52589 26719 ft 409 kts 216°
2026-04-22 18:07 56.85590 13.49513 26358 ft 406 kts 216°
2026-04-22 18:07 56.83337 13.46426 25993 ft 403 kts 216°
2026-04-22 18:07 56.81100 13.43366 25649 ft 400 kts 216°
2026-04-22 18:08 56.78897 13.40358 25513 ft 390 kts 216°
2026-04-22 18:08 56.76750 13.37430 25390 ft 380 kts 216°
2026-04-22 18:08 56.74656 13.34580 25267 ft 371 kts 216°
2026-04-22 18:08 56.72615 13.31805 25145 ft 361 kts 216°
2026-04-22 18:09 56.70615 13.29088 24813 ft 360 kts 216°
2026-04-22 18:09 56.68600 13.26356 24396 ft 362 kts 216°
2026-04-22 18:09 56.66580 13.23622 24079 ft 361 kts 216°
2026-04-22 18:09 56.64570 13.20899 23758 ft 359 kts 216°
2026-04-22 18:10 56.62571 13.18192 23406 ft 357 kts 216°
2026-04-22 18:10 56.60586 13.15504 23054 ft 355 kts 216°
2026-04-22 18:10 56.58613 13.12836 22702 ft 353 kts 216°
2026-04-22 18:10 56.56651 13.10191 22357 ft 350 kts 216°
2026-04-22 18:11 56.54701 13.07569 22020 ft 348 kts 216°
2026-04-22 18:11 56.52761 13.04963 21685 ft 346 kts 217°
2026-04-22 18:11 56.50833 13.02376 21351 ft 344 kts 217°
2026-04-22 18:11 56.48916 12.99809 21018 ft 342 kts 217°
2026-04-22 18:12 56.47011 12.97263 20695 ft 340 kts 217°
2026-04-22 18:12 56.45116 12.94737 20373 ft 338 kts 217°
2026-04-22 18:12 56.43229 12.92221 20051 ft 336 kts 217°
2026-04-22 18:12 56.41353 12.89723 19737 ft 334 kts 217°
2026-04-22 18:13 56.39484 12.87237 19423 ft 333 kts 217°
2026-04-22 18:13 56.37626 12.84763 19108 ft 331 kts 217°
2026-04-22 18:13 56.35777 12.82305 18796 ft 329 kts 217°
2026-04-22 18:13 56.33936 12.79863 18493 ft 328 kts 218°
2026-04-22 18:14 56.32104 12.77431 18144 ft 326 kts 218°
2026-04-22 18:14 56.30280 12.75013 17796 ft 325 kts 218°
2026-04-22 18:14 56.28464 12.72610 17445 ft 323 kts 218°
2026-04-22 18:14 56.26655 12.70213 17061 ft 323 kts 218°
2026-04-22 18:15 56.24844 12.67818 16680 ft 323 kts 218°
2026-04-22 18:15 56.23032 12.65435 16299 ft 323 kts 217°
2026-04-22 18:15 56.21039 12.63559 15916 ft 325 kts 199°
2026-04-22 18:15 56.18890 12.62333 15590 ft 323 kts 198°
2026-04-22 18:16 56.16757 12.61133 15284 ft 320 kts 198°
2026-04-22 18:16 56.14638 12.59948 14992 ft 318 kts 198°
2026-04-22 18:16 56.12538 12.58774 14694 ft 315 kts 198°
2026-04-22 18:16 56.10454 12.57611 14411 ft 313 kts 198°
2026-04-22 18:17 56.08383 12.56456 14130 ft 311 kts 199°
2026-04-22 18:17 56.06325 12.55308 13821 ft 309 kts 199°
2026-04-22 18:17 56.04283 12.54166 13498 ft 307 kts 199°
2026-04-22 18:17 56.02252 12.53028 13185 ft 305 kts 199°
2026-04-22 18:18 56.00230 12.51897 12871 ft 303 kts 199°
2026-04-22 18:18 55.98220 12.50781 12563 ft 302 kts 199°
2026-04-22 18:18 55.96221 12.49673 12256 ft 300 kts 199°
2026-04-22 18:18 55.94229 12.48571 11952 ft 299 kts 199°
2026-04-22 18:19 55.92250 12.47477 11643 ft 297 kts 199°
2026-04-22 18:19 55.90278 12.46386 11341 ft 296 kts 199°
2026-04-22 18:19 55.88313 12.45296 11048 ft 295 kts 199°
2026-04-22 18:19 55.86360 12.44214 10758 ft 294 kts 199°
2026-04-22 18:20 55.84409 12.43135 10467 ft 293 kts 199°
2026-04-22 18:20 55.82469 12.42066 10179 ft 292 kts 200°
2026-04-22 18:20 55.80529 12.41001 9866 ft 291 kts 200°
2026-04-22 18:20 55.78629 12.39956 9554 ft 290 kts 200°
2026-04-22 18:21 55.76707 12.38902 9235 ft 288 kts 200°
2026-04-22 18:21 55.74798 12.37857 8928 ft 287 kts 200°
2026-04-22 18:21 55.72888 12.36809 8620 ft 286 kts 200°
2026-04-22 18:21 55.70989 12.35764 8303 ft 285 kts 200°
2026-04-22 18:22 55.69092 12.34718 7983 ft 286 kts 200°
2026-04-22 18:22 55.67195 12.33678 7649 ft 285 kts 200°
2026-04-22 18:22 55.65299 12.32642 7332 ft 285 kts 200°
2026-04-22 18:22 55.63405 12.31609 7011 ft 285 kts 200°
2026-04-22 18:23 55.61513 12.30575 6696 ft 285 kts 200°
2026-04-22 18:23 55.59642 12.29557 6354 ft 276 kts 200°
2026-04-22 18:23 55.57840 12.28582 6021 ft 266 kts 200°
2026-04-22 18:24 55.54416 12.26787 5364 ft 249 kts 193°
2026-04-22 18:24 55.52717 12.27000 5040 ft 245 kts 159°
2026-04-22 18:24 55.50104 12.30450 4416 ft 228 kts 136°
2026-04-22 18:25 55.48953 12.32358 4081 ft 226 kts 135°
2026-04-22 18:25 55.47828 12.34288 3743 ft 225 kts 130°
2026-04-22 18:25 55.47163 12.36690 3412 ft 217 kts 93°
2026-04-22 18:26 55.47575 12.41708 2751 ft 201 kts 57°
2026-04-22 18:26 55.48365 12.43651 2414 ft 191 kts 36°
2026-04-22 18:26 55.49353 12.45180 2089 ft 189 kts 34°
2026-04-22 18:26 55.50312 12.46652 2001 ft 177 kts 33°
2026-04-22 18:27 55.51230 12.48060 1994 ft 173 kts 33°
2026-04-22 18:27 55.52135 12.49448 1854 ft 172 kts 33°
2026-04-22 18:27 55.53033 12.50825 1671 ft 170 kts 33°
2026-04-22 18:27 55.53931 12.52204 1438 ft 172 kts 35°
2026-04-22 18:28 55.54824 12.53580 1222 ft 167 kts 34°
2026-04-22 18:28 55.55675 12.54918 968 ft 161 kts 34°
2026-04-22 18:28 55.56523 12.56220 779 ft 161 kts 35°
2026-04-22 18:28 55.57380 12.57506 537 ft 161 kts 36°
2026-04-22 18:29 55.58228 12.58802 339 ft 162 kts 36°
2026-04-22 18:29 55.59074 12.60098 140 ft 161 kts 38°
2026-04-22 18:29 55.59890 12.61364 27 ft 141 kts 36°
2026-04-22 18:29 55.60503 12.62306 25 ft 93 kts 44°
2026-04-22 18:30 55.60849 12.62808 27 ft 39 kts 22°
2026-04-22 18:30 55.61210 12.63049 24 ft 19 kts 39°
2026-04-22 18:30 55.61293 12.63171 24 ft 13 kts 40°
2026-04-22 18:31 55.61406 12.63340 24 ft 26 kts 40°
2026-04-22 18:31 55.61546 12.63565 24 ft 28 kts 43°
2026-04-22 18:31 55.61700 12.63807 24 ft 31 kts 40°
2026-04-22 18:31 55.61872 12.64053 24 ft 33 kts 35°
2026-04-22 18:32 55.62079 12.64247 25 ft 35 kts 25°
2026-04-22 18:32 55.62264 12.64455 23 ft 29 kts 63°
2026-04-22 18:32 55.62298 12.64784 24 ft 23 kts 126°
2026-04-22 18:32 55.62310 12.64939 24 ft 16 kts 88°
2026-04-22 18:33 55.62288 12.65149 27 ft 16 kts 64°
2026-04-22 18:33 55.62398 12.65204 25 ft 18 kts 358°
2026-04-22 18:33 55.62534 12.65180 24 ft 21 kts 356°
2026-04-22 18:33 55.62643 12.65245 24 ft 16 kts 79°
2026-04-22 18:34 55.62686 12.65377 24 ft 9 kts 26°
2026-04-22 18:34 55.62707 12.65396 24 ft 0 kts 27°